SCP
0 0 0 0 0 0 0 0 0 0 0 0 0 0 0 0 0 0 0 0 0 0 0 0 0 0 0 0 0 0 0 0 0 0 0 0 0 0 0 0 0 0 0 0 0 0 0 0 0
0 0 0 0 0 0 0 0 0 0 0 0 0 0 0 0 0 0 0 0 0 0 0 0 0 0 0 0 0 0 0 0 0 0 0 0 0 0 0 0 0 0 0 0 0 0 0 0 0
0 0 0 0 0 0 0 0 0 0 0 0 0 0 0 0 0 0 0 0 0 0 0 0 0 0 0 0 0 0 0 0 0 0 0 0 0 0 0 0 0 0 0 0 0 0 0 0 0
0 0 0 0 0 0 0 0 0 0 0 0 0 0 0 0 0 0 0 0 1 1 1 0 0 0 0 0 0 0 0 0 0 0 0 0 0 0 0 0 0 0 0 0 0 0 0 0 0
0 0 0 0 0 0 0 0 0 0 0 0 0 0 0 0 0 0 0 0 1 1 1 0 0 0 0 0 0 0 0 0 0 0 0 0 0 0 0 0 0 0 0 0 0 0 0 0 0
0 0 0 0 0 0 0 0 0 0 0 0 0 0 0 0 0 0 0 0 0 1 1 0 0 0 0 0 0 0 0 0 0 0 0 0 0 0 0 0 0 0 0 0 0 0 0 0 0
0 0 0 0 0 0 0 0 0 0 0 0 0 0 0 0 1 0 0 0 0 0 1 0 0 0 0 0 0 0 0 0 0 0 0 0 0 0 0 0 0 0 0 0 0 0 0 0 0
0 0 0 0 0 0 0 0 0 0 0 0 0 0 0 1 1 1 0 0 0 1 1 0 0 0 0 0 0 0 0 0 0 0 0 0 0 0 0 0 0 0 0 0 0 0 0 0 0
0 0 0 0 0 0 0 0 0 0 0 0 0 0 0 1 1 1 1 1 1 1 1 0 0 0 0 0 0 0 0 0 0 0 0 0 0 0 0 0 0 0 0 0 0 0 0 0 0
0 0 0 0 0 0 0 0 0 0 0 0 0 0 0 1 1 1 1 1 1 1 1 0 0 0 0 0 0 0 0 0 0 0 0 0 0 0 0 0 0 0 0 0 0 0 0 0 0
0 0 0 0 0 0 0 0 0 0 0 0 0 0 0 0 1 1 1 1 1 1 1 0 0 0 0 0 0 0 0 0 0 0 0 0 0 0 0 0 0 0 0 0 0 0 0 0 0
0 0 0 0 0 0 0 0 0 0 0 0 0 0 0 0 0 1 1 1 1 1 0 0 0 0 0 0 0 0 0 0 0 0 0 0 0 0 0 0 0 0 0 0 0 0 0 0 0
0 0 0 0 0 0 0 0 0 0 0 0 0 0 0 0 0 0 0 1 1 1 0 0 0 0 0 0 0 0 0 0 0 0 0 0 0 0 0 0 0 0 0 0 0 0 0 0 0
0 0 0 0 0 0 0 0 0 0 0 0 0 0 0 0 0 0 0 1 1 1 1 0 0 0 0 0 0 0 0 0 0 0 0 0 0 0 0 0 0 0 0 0 0 0 0 0 0
0 0 0 0 0 0 0 0 0 0 0 0 0 0 0 0 0 0 0 0 1 1 1 1 0 0 0 0 0 0 0 0 0 0 0 0 0 0 0 0 0 0 0 0 0 0 0 0 0
0 0 0 0 0 0 0 0 0 0 0 0 0 0 0 0 0 0 0 0 0 1 1 1 0 0 0 0 0 0 0 0 0 0 0 0 0 0 0 0 0 0 0 0 0 0 0 0 0
0 0 0 0 0 0 0 0 0 0 0 0 0 0 0 0 0 0 0 0 0 1 1 1 1 0 0 0 0 0 0 0 0 0 0 0 0 0 0 0 0 0 0 0 0 0 0 0 0
0 0 0 0 0 0 0 0 0 0 0 0 0 0 0 0 0 0 0 0 0 0 1 1 1 0 0 0 0 0 0 0 0 0 0 0 0 0 0 0 0 0 0 0 0 0 0 0 0
0 0 0 0 0 0 0 0 0 0 0 0 0 0 0 0 0 0 0 0 0 0 1 1 1 1 0 0 0 0 0 0 0 0 0 0 0 0 0 0 0 0 0 0 0 0 0 0 0
0 0 0 0 0 0 0 0 0 0 0 0 0 0 0 0 0 0 0 0 0 0 0 1 2 1 1 0 0 0 0 0 0 0 0 0 0 0 0 0 0 0 0 0 0 0 0 0 0
0 0 0 0 0 0 0 0 0 0 0 0 0 0 0 0 0 0 0 0 0 0 0 1 2 2 1 1 0 0 0 0 0 0 0 0 0 0 0 0 0 0 0 0 0 0 0 0 0
0 0 0 0 0 0 0 0 0 0 0 0 0 0 0 0 0 0 0 0 0 0 0 1 2 2 2 1 0 0 0 0 0 0 0 0 0 0 0 0 0 0 0 0 0 0 0 0 0
0 0 0 0 0 0 0 0 0 0 0 0 0 0 0 0 0 0 0 0 0 0 0 0 1 2 2 2 1 0 0 0 0 0 0 0 0 0 0 0 0 0 0 0 0 0 0 0 0
0 0 0 0 0 0 0 0 0 0 0 0 0 0 0 0 0 0 0 0 0 0 0 0 1 2 2 2 1 0 0 0 0 0 0 0 0 0 0 0 0 0 0 0 0 0 0 0 0
0 0 0 0 0 0 0 0 0 0 0 0 0 0 0 0 0 0 0 0 0 0 0 0 1 1 2 2 2 1 0 0 0 0 0 1 1 0 0 0 0 0 0 0 0 0 0 0 0
0 0 0 0 0 0 0 0 0 0 0 0 0 0 0 0 0 0 0 0 0 0 0 0 0 1 1 2 2 1 1 0 0 0 0 1 1 1 1 1 0 0 0 0 0 0 0 0 0
0 0 0 0 0 0 0 0 0 0 0 0 0 0 0 0 0 0 0 0 0 0 0 0 0 0 0 1 1 1 1 1 0 0 0 0 1 1 1 1 1 1 1 0 0 0 0 0 0
0 0 0 0 0 0 0 0 0 0 0 0 0 0 0 0 0 0 0 0 0 0 0 0 0 0 0 0 1 1 1 1 0 0 0 0 1 1 2 2 2 2 1 1 1 0 0 0 0
0 0 1 0 0 0 0 0 0 0 0 0 0 0 0 0 0 0 0 0 0 0 0 0 0 0 0 0 0 0 1 1 1 0 0 0 0 1 2 2 3 3 3 2 2 1 1 1 0
0 0 0 0 0 0 0 0 0 0 0 0 0 0 0 0 0 0 0 0 0 0 0 0 0 0 0 0 0 0 1 1 1 0 0 0 0 1 2 3 3 3 3 3 3 2 1 1 1
Wind_Speed
16 13 7 3 3 3 1 4 4 4 4 6 5 5 6 9 7 7 4 8 12 13 12 10 10 11 12 12 12 11 12 12 13 13 13 13 13 13 14 14 14 14 15 16 16 16 16 15 15
13 12 6 3 3 2 1 4 5 7 7 4 2 1 2 8 7 8 5 8 12 12 11 11 11 11 12 12 11 11 11 12 12 12 12 12 12 13 13 13 13 13 14 15 15 15 14 14 14
12 9 4 3 4 2 2 4 7 8 5 2 2 2 5 6 7 6 7 9 10 10 10 12 11 11 12 11 11 11 11 11 11 12 12 12 12 12 12 13 12 13 13 14 14 14 13 13 12
6 4 4 4 6 2 3 5 8 6 3 0 0 5 6 5 4 7 9 9 10 10 11 11 11 11 11 11 11 11 11 11 11 11 11 11 11 11 12 12 12 12 13 13 13 13 12 12 11
4 3 4 5 6 0 3 5 4 4 5 4 1 4 7 5 8 10 8 8 8 9 10 11 10 10 10 10 11 11 11 11 11 11 11 11 11 11 11 12 12 12 12 12 12 12 11 10 9
3 3 5 6 5 2 3 3 2 3 3 4 1 2 6 6 8 8 7 7 8 8 10 10 9 10 10 10 10 10 10 10 10 11 11 10 10 10 10 11 11 11 11 12 11 10 10 9 7
3 4 7 8 5 3 3 3 2 2 2 4 1 2 7 7 8 8 7 6 8 9 9 9 8 8 9 9 9 9 10 10 10 10 10 9 9 9 9 9 10 10 10 11 10 9 8 8 6
3 4 7 8 6 4 3 3 0 2 1 4 1 1 6 9 9 7 6 5 7 7 7 8 8 8 7 7 8 9 9 9 9 9 9 9 8 8 8 8 8 10 10 10 10 9 8 7 5
3 4 6 7 5 3 3 3 2 2 1 2 3 5 7 14 10 7 5 4 5 6 6 7 7 7 8 8 9 8 9 9 9 8 10 8 5 5 5 7 8 8 8 9 9 8 7 6 3
4 5 8 6 5 3 0 2 2 2 3 3 5 7 10 10 10 9 8 8 8 7 6 5 6 7 7 7 7 5 6 6 6 6 6 5 4 4 6 8 8 8 8 7 7 8 7 5 3
5 7 7 6 5 5 3 3 2 3 5 4 6 11 11 10 9 9 9 9 8 8 7 6 6 6 6 5 6 4 4 5 5 7 7 4 4 4 4 4 4 5 6 4 5 5 3 4 2
7 7 7 6 2 2 4 4 5 6 5 3 2 9 11 10 10 11 10 9 8 8 9 8 7 6 6 5 5 4 4 4 4 6 7 4 3 4 4 4 4 4 3 4 4 3 4 3 2
11 8 8 6 3 3 5 6 7 7 6 2 0 5 9 10 10 9 9 8 9 9 9 9 8 7 6 5 4 5 5 5 5 5 6 6 4 4 4 4 4 5 4 4 4 4 4 3 3
6 8 9 7 6 5 7 9 9 8 6 5 5 6 8 9 10 10 10 10 10 10 10 9 9 8 7 6 5 4 5 5 5 5 6 6 5 5 4 4 4 4 4 4 4 5 4 3 3
6 7 9 9 8 5 5 11 13 11 9 9 8 8 9 9 9 10 11 11 10 10 10 11 10 10 9 7 7 5 4 5 5 5 6 7 6 6 5 4 5 4 4 5 4 4 3 3 4
5 7 10 9 10 8 7 13 9 8 10 10 9 9 9 9 10 10 10 10 11 10 11 11 10 11 10 9 7 5 5 5 5 5 6 7 7 7 6 5 5 5 4 4 4 3 3 3 3
8 10 11 9 11 9 11 10 7 7 9 10 9 9 9 9 9 10 10 10 11 11 12 12 12 12 11 10 7 6 5 6 5 5 6 7 8 8 6 5 5 6 5 5 5 4 4 4 4
11 11 11 12 8 11 13 12 9 9 9 9 9 9 9 9 9 9 10 10 10 11 11 12 13 12 11 9 7 6 7 6 6 6 7 8 8 9 7 6 7 7 5 5 5 5 5 4 4
11 12 13 11 9 10 13 15 13 12 12 11 10 10 10 10 9 9 9 10 10 10 11 12 13 13 11 10 10 10 9 8 7 7 8 9 9 10 9 7 7 7 7 7 7 6 6 5 3
16 17 15 9 7 7 10 14 12 12 13 12 12 11 11 10 9 9 9 9 10 11 12 12 13 13 13 11 10 8 7 7 8 7 9 10 11 11 10 10 8 8 7 8 9 7 5 5 5
18 18 16 10 5 5 6 12 14 14 14 14 14 13 12 11 10 9 9 10 10 12 13 12 13 14 14 13 8 7 7 6 8 10 10 12 12 11 11 12 10 10 10 9 10 9 10 7 6
18 15 12 10 8 7 7 10 11 12 15 16 16 15 14 13 11 10 9 9 10 11 12 13 13 13 13 13 12 12 12 13 13 10 9 10 12 13 13 12 12 11 10 10 11 11 9 8 7
10 8 11 11 9 9 9 10 8 8 13 13 13 14 14 12 11 10 10 10 10 10 10 12 12 13 13 14 15 14 13 12 8 8 10 11 12 14 14 14 13 13 11 12 11 11 11 10 9
7 6 6 6 7 15 17 14 11 10 13 11 11 11 11 10 9 9 8 7 8 8 9 10 12 13 13 14 15 16 16 14 11 11 11 11 10 11 15 16 15 14 13 13 13 12 13 12 11
10 9 7 9 11 13 11 14 12 8 10 10 10 8 8 8 9 9 8 7 7 7 8 9 11 12 12 13 14 16 17 16 16 13 12 11 10 11 15 16 16 14 15 13 12 12 13 14 13
16 15 11 9 7 5 9 15 10 7 8 7 6 5 4 4 6 6 6 6 6 6 7 8 10 11 11 12 13 13 14 12 11 13 11 11 10 11 11 15 15 16 15 14 13 12 13 11 14
13 16 11 5 3 5 7 8 8 7 7 7 7 5 5 5 4 4 4 4 4 5 6 8 9 10 10 10 11 12 13 13 12 12 12 10 10 9 12 14 15 16 16 15 14 12 13 12 13
11 8 7 10 9 10 8 10 8 7 9 8 8 7 5 4 4 4 3 3 3 4 5 6 7 8 9 9 9 9 11 12 12 11 13 12 11 10 11 13 15 15 16 16 15 13 12 14 14
14 13 10 7 7 7 7 7 6 7 7 7 5 4 3 2 1 1 1 2 2 2 2 4 5 6 7 8 8 9 9 10 11 11 12 12 11 11 12 12 13 15 15 16 16 16 14 16 15
15 16 15 11 8 7 6 7 1 2 2 3 3 1 1 1 1 1 1 2 2 3 3 4 4 5 6 6 7 8 8 8 10 11 12 11 12 11 12 11 12 13 15 15 17 17 16 17 17
Wind_Direction
311 306 296 276 265 245 112 83 79 86 78 54 36 0 24 44 36 97 136 117 116 119 127 131 127 129 128 127 125 125 122 120 118 115 111 107 104 102 99 96 94 96 95 94 92 90 88 86 85
305 306 297 262 268 273 107 114 100 76 79 88 82 323 57 81 80 107 122 115 119 125 135 132 129 130 131 131 129 127 125 123 121 118 115 111 107 106 105 102 100 100 99 98 96 93 91 89 88
297 285 282 277 267 297 83 103 99 87 102 140 123 34 35 71 104 123 126 128 122 125 125 126 133 134 135 135 133 131 128 125 124 121 118 115 111 109 109 106 104 103 102 101 99 96 94 92 90
305 287 246 255 268 306 70 92 101 117 130 200 146 112 83 50 77 111 128 131 125 125 123 131 136 138 139 138 137 135 133 129 126 124 121 119 115 113 112 110 108 106 106 104 101 99 96 93 91
275 266 261 257 263 311 68 82 116 155 161 156 253 103 96 84 94 115 136 131 128 127 125 136 137 138 140 142 142 140 136 133 131 128 126 123 119 117 116 114 113 112 109 107 106 103 99 95 91
290 273 258 252 251 182 125 114 173 198 137 127 200 110 102 122 126 137 140 138 135 128 127 136 135 138 141 143 143 141 138 135 135 133 131 128 125 123 122 121 120 118 116 114 111 108 104 100 92
284 281 269 271 269 238 141 125 211 231 164 140 169 107 118 139 132 140 143 146 137 131 135 143 148 146 143 142 141 141 138 136 135 134 132 129 126 123 121 122 126 126 124 121 118 115 110 106 96
299 284 265 261 260 245 133 135 190 313 42 76 24 27 126 141 134 139 144 148 137 137 148 154 159 158 154 147 143 141 138 137 134 130 129 127 124 122 125 126 128 133 131 129 128 126 122 117 108
282 250 253 254 259 262 129 166 147 16 18 101 76 54 97 126 133 140 147 156 146 151 162 163 163 162 159 159 153 146 142 140 136 133 138 140 147 140 142 139 132 135 136 138 140 138 136 133 135
212 235 244 268 296 309 219 218 166 186 221 181 139 110 116 134 150 163 173 178 173 174 178 172 170 166 164 162 153 161 159 156 163 155 161 180 172 154 147 136 135 136 139 145 153 155 159 170 181
216 234 257 269 308 328 317 287 266 237 242 224 178 152 148 158 171 182 189 190 184 180 181 184 180 171 167 156 159 166 165 168 180 168 177 184 161 140 134 135 137 141 152 160 161 170 205 211 187
242 247 259 273 321 321 298 294 279 255 262 355 63 143 156 174 187 193 194 194 187 185 184 187 185 176 172 166 171 167 165 170 176 173 176 173 160 160 160 159 167 173 182 180 176 196 213 206 191
235 247 257 266 270 268 276 268 270 263 262 266 98 151 176 188 196 199 197 195 192 192 186 186 188 184 179 176 179 176 173 175 177 172 177 174 169 176 174 175 174 181 185 186 187 197 198 193 201
236 243 250 249 245 239 250 257 252 250 254 238 214 199 202 203 201 197 195 197 197 195 190 186 189 189 185 184 186 183 178 177 178 175 182 183 179 178 179 180 180 188 186 184 191 196 189 191 195
257 255 254 240 235 231 248 254 240 244 246 243 230 219 215 214 205 203 200 197 197 194 190 189 190 190 190 193 192 190 187 180 184 180 186 189 189 181 180 183 185 192 189 187 189 202 187 189 196
226 233 239 227 221 219 222 251 241 235 232 237 232 227 220 217 211 206 203 198 194 190 190 191 189 191 193 195 198 195 193 188 189 185 187 193 196 189 183 187 190 190 185 182 186 195 189 198 203
206 223 228 231 214 205 215 248 248 246 236 236 234 232 225 220 216 208 202 199 193 191 188 190 189 192 194 194 197 201 199 198 195 192 192 194 198 196 189 191 192 187 186 185 189 194 190 198 208
201 215 227 228 212 206 223 238 245 257 259 250 241 238 233 226 221 211 202 198 194 191 188 190 190 192 191 193 198 203 208 207 204 202 201 196 198 198 194 194 194 187 187 191 192 195 199 200 199
234 227 228 232 228 222 232 242 241 241 247 249 246 243 240 233 227 215 204 195 189 190 190 191 193 192 189 194 198 202 208 208 209 209 206 202 199 198 198 197 197 194 194 196 194 191 200 207 192
237 242 246 252 240 239 250 254 250 244 245 244 244 242 241 240 232 221 209 197 192 193 194 196 197 194 194 198 200 203 204 209 213 213 213 210 205 201 203 202 200 198 198 199 200 195 194 199 187
229 233 237 242 260 261 277 268 250 247 246 246 244 243 242 238 234 226 215 206 198 196 197 200 201 199 199 196 192 196 203 210 212 213 214 212 208 205 205 206 204 203 202 206 205 200 197 201 200
230 227 235 238 238 241 215 265 247 239 239 238 237 236 236 235 232 228 222 214 206 203 199 200 202 202 200 195 196 197 203 211 215 212 212 208 207 209 209 208 208 208 207 208 207 205 203 197 202
226 218 226 232 237 250 230 254 255 230 241 236 231 228 230 228 225 226 223 219 214 205 200 199 202 206 203 200 200 202 211 217 216 210 210 208 208 210 212 211 211 213 213 211 207 206 206 206 207
205 216 232 235 231 240 228 236 259 218 231 236 232 225 224 223 225 230 229 220 217 209 201 199 202 208 208 206 205 207 212 214 214 213 212 209 208 209 212 214 214 215 216 215 212 210 209 210 211
192 190 206 211 217 234 204 223 246 212 220 227 229 226 222 217 218 224 229 224 218 212 205 203 206 212 210 210 212 212 215 216 218 218 217 212 210 210 211 210 214 216 218 217 214 213 214 212 212
199 200 207 213 215 226 193 224 241 214 223 231 233 223 219 224 224 222 226 225 220 215 208 208 212 217 214 214 217 218 218 219 222 221 221 219 217 215 208 208 213 216 216 217 216 217 217 214 216
199 212 219 240 266 268 232 243 249 216 215 219 224 222 224 232 231 227 232 233 229 225 220 216 218 220 220 220 221 223 222 221 222 222 223 226 223 216 209 207 211 214 215 216 216 220 218 217 219
215 191 187 210 216 232 234 233 236 215 214 212 214 212 216 230 239 240 237 235 243 242 237 231 224 223 224 223 225 228 227 226 226 225 225 226 225 220 213 210 209 211 212 214 217 221 219 220 221
195 202 205 205 209 213 236 240 217 211 202 201 196 186 201 230 267 278 282 272 273 276 265 253 242 237 235 232 231 233 232 230 229 228 228 228 228 223 220 215 212 211 211 212 216 220 217 221 223
207 207 203 210 215 211 231 255 318 71 94 136 140 156 149 142 295 302 330 326 313 299 289 280 265 250 244 238 236 236 237 235 233 233 232 228 228 226 223 220 218 215 213 211 214 218 218 221 223